Weather History for KHUL - June, 2013

Change the Weather History Date:

Thursday, June 13, 2013

  Actual Average Record
Temperature  
Mean Temperature 55 °F 60 °F  
Max Temperature 70 °F 72 °F 97 °F (1969)
Min Temperature 39 °F 47 °F 32 °F (1976)
Degree Days  
Heating Degree Days 10 6  
Month to date heating degree days 100 102  
Since 1 June heating degree days 100 102  
Since 1 July heating degree days 8450 9109  
Cooling Degree Days 0 1  
Month to date cooling degree days 10 9  
Year to date cooling degree days 14 13  
Since 1 June cooling degree days 10 9  
Growing Degree Days 4 (Base 50)    
Moisture  
Dew Point 44 °F    
Average Humidity 70    
Maximum Humidity 100    
Minimum Humidity 40    
Precipitation  
Precipitation 0.00 in 0.12 in 2.03 in (1991)
Month to date precipitation 3.76 1.49  
Year to date precipitation 14.99 16.12  
Sea Level Pressure  
Sea Level Pressure 29.75 in    
Wind  
Wind Speed 5 mph (NE)    
Max Wind Speed 14 mph    
Max Gust Speed 20 mph    
Visibility 7 miles    
Events      
T = Trace of Precipitation, MM = Missing Value Source: NWS Daily Summary

Daily Weather History Graph

Daily Weather History Graph

Search for Another Location

Airport or City:

Trip Planner

Search our weather history database for the weather conditions in past years. The results will help you decide how hot, cold, wet, or windy it might be!

Date:

Astronomy

Jun. 13, 2013 Rise Set
Actual Time 4:39 AM EDT 8:23 PM EDT
Civil Twilight 4:00 AM EDT 9:02 PM EDT
Nautical Twilight 3:08 AM EDT 9:54 PM EDT
Astronomical Twilight 1:56 AM EDT 11:06 PM EDT
Moon 9:25 AM EDT (6/13) 11:13 PM EDT (6/13)
Length of Visible Light 17h 01m
Length of Day
15h 44m
Waxing Crescent, 21% of the Moon is Illuminated
Jun 13
Waxing Crescent
Jun 16
First Quarter
Jun 23
Full
Jun 30
Last Quarter
Jul 8
New

Hourly Weather History & Observations

Time (EDT) Temp. Windchill Dew Point Humidity Pressure Visibility Wind Dir Wind Speed Gust Speed Precip Events Conditions
12:53 AM 51.1 °F - 48.9 °F 92% 29.73 in 10.0 mi Calm Calm - N/A   Mostly Cloudy
1:53 AM 46.9 °F - 46.0 °F 97% 29.73 in 10.0 mi NNE 8.1 mph - N/A   Clear
2:53 AM 46.0 °F 44.8 °F 44.1 °F 93% 29.73 in 10.0 mi NNE 3.5 mph - N/A   Clear
3:24 AM 44.6 °F - 42.8 °F 93% 29.72 in 1.8 mi Calm Calm - N/A   Clear
3:32 AM 44.6 °F - 42.8 °F 93% 29.72 in 1.2 mi Calm Calm - N/A   Clear
3:39 AM 42.8 °F - 42.8 °F 100% 29.72 in 2.0 mi Calm Calm - N/A   Clear
3:53 AM 42.1 °F - 41.0 °F 96% 29.73 in 8.0 mi Calm Calm - N/A   Clear
4:34 AM 41.0 °F - 41.0 °F 100% 29.73 in 1.8 mi Calm Calm - N/A   Clear
4:36 AM 41.0 °F - 39.2 °F 93% 29.73 in 0.8 mi Calm Calm - N/A   Clear
4:50 AM 41.0 °F - 41.0 °F 100% 29.74 in 1.5 mi Calm Calm - N/A   Clear
4:53 AM 39.9 °F - 39.9 °F 100% 29.75 in 2.5 mi Calm Calm - N/A   Clear
5:04 AM 41.0 °F - 39.2 °F 93% 29.74 in 8.0 mi Calm Calm - N/A   Clear
5:13 AM 41.0 °F - 39.2 °F 93% 29.74 in 1.0 mi Calm Calm - N/A   Clear
5:20 AM 41.0 °F 39.0 °F 39.2 °F 93% 29.74 in 0.8 mi NE 3.5 mph - N/A   Clear
5:23 AM 41.0 °F - 41.0 °F 100% 29.74 in 1.8 mi Calm Calm - N/A   Clear
5:30 AM 39.2 °F - 39.2 °F 100% 29.75 in 1.0 mi Calm Calm - N/A   Clear
5:39 AM 42.8 °F - 41.0 °F 93% 29.76 in 2.5 mi Calm Calm - 0.01 in   Clear
5:46 AM 42.8 °F - 41.0 °F 93% 29.76 in 10.0 mi Calm Calm - 0.01 in   Clear
5:53 AM 43.0 °F - 42.1 °F 97% 29.77 in 10.0 mi Calm Calm - 0.01 in   Clear
6:53 AM 48.9 °F - 43.0 °F 80% 29.79 in 10.0 mi NNW 3.5 mph - N/A   Clear
7:53 AM 54.0 °F - 44.1 °F 69% 29.80 in 10.0 mi North 8.1 mph - N/A   Clear
8:53 AM 55.9 °F - 44.1 °F 64% 29.80 in 10.0 mi North 13.8 mph - N/A   Clear
9:53 AM 60.1 °F - 46.0 °F 60% 29.79 in 10.0 mi ENE 10.4 mph - N/A   Clear
10:53 AM 63.0 °F - 46.9 °F 56% 29.78 in 10.0 mi ENE 10.4 mph - N/A   Clear
11:53 AM 66.0 °F - 46.9 °F 50% 29.76 in 10.0 mi North 9.2 mph 17.3 mph N/A   Partly Cloudy
12:53 PM 66.9 °F - 45.0 °F 45% 29.75 in 10.0 mi ENE 9.2 mph 18.4 mph N/A   Mostly Cloudy
1:53 PM 68.0 °F - 45.0 °F 43% 29.74 in 10.0 mi ENE 8.1 mph - N/A   Scattered Clouds
2:53 PM 69.1 °F - 45.0 °F 42% 29.73 in 10.0 mi Variable 3.5 mph - N/A   Partly Cloudy
3:53 PM 70.0 °F - 44.1 °F 39% 29.72 in 10.0 mi East 6.9 mph - N/A   Partly Cloudy
4:53 PM 66.9 °F - 46.0 °F 47% 29.71 in 10.0 mi Variable 4.6 mph - N/A   Scattered Clouds
5:53 PM 68.0 °F - 45.0 °F 43% 29.72 in 10.0 mi SE 4.6 mph - N/A   Clear
6:53 PM 66.0 °F - 45.0 °F 47% 29.73 in 10.0 mi SSE 5.8 mph - N/A   Clear
7:53 PM 61.0 °F - 48.9 °F 64% 29.75 in 10.0 mi SSE 3.5 mph - N/A   Clear
8:53 PM 52.0 °F - 48.9 °F 89% 29.75 in 10.0 mi Calm Calm - N/A   Clear
9:53 PM 51.1 °F - 48.9 °F 92% 29.75 in 10.0 mi Calm Calm - N/A   Clear
10:53 PM 48.0 °F - 46.9 °F 96% 29.75 in 10.0 mi Calm Calm - N/A   Clear
11:53 PM 48.9 °F - 46.9 °F 93% 29.73 in 10.0 mi Calm Calm - N/A   Clear